Theta_e
334 336 339 342 344 345 347 348 352 354 353 353 354 358 356 354 354 355 357 355 356 354 352 353 350 350 352 352 351 351 350 350 351 350 351 347 343 347 344 343 343 342 342 343 343 343 342 342 342 342 341 339 337 337 339 338 336 334 331 329 328 327 326 326 326 326 327 329 332 335 335 334 335 336 337 339 340 340 340 340 340 339 338 340 342 343 344 344 343 342 343 343 343 343 343 343 343
337 342 344 346 347 348 349 348 353 355 354 354 355 359 356 356 356 357 357 355 356 354 352 352 351 352 351 350 349 351 351 351 350 348 348 344 345 347 344 343 343 343 343 343 343 344 344 343 343 343 338 335 335 335 335 335 333 331 329 329 330 332 333 334 333 332 333 334 337 339 340 340 340 340 341 342 343 343 342 341 342 341 340 342 342 343 345 344 342 342 342 343 343 343 343 343 343
342 345 347 348 348 348 349 350 354 355 354 354 355 359 357 358 358 356 355 353 354 352 352 352 352 352 351 352 352 353 352 350 348 346 346 345 345 345 345 344 343 343 342 342 343 342 343 343 344 341 336 334 334 333 333 332 330 328 330 332 335 338 341 341 338 336 335 335 338 340 341 342 342 342 343 343 343 343 342 342 343 343 343 343 343 343 345 344 341 341 342 342 343 342 343 343 343
346 347 348 349 349 350 352 354 357 355 355 353 354 358 357 357 356 354 354 353 353 352 352 351 352 351 352 355 352 351 351 348 347 346 346 345 344 343 344 344 344 343 341 341 341 341 341 342 341 336 334 333 332 331 330 329 331 332 334 336 339 342 343 342 341 338 335 337 341 342 343 343 343 343 343 342 342 343 343 343 343 344 344 343 343 343 344 343 340 340 342 342 343 343 342 342 343
348 348 349 349 350 351 353 357 358 356 355 355 356 358 357 355 354 353 354 354 353 352 351 351 352 351 351 353 350 351 351 348 347 346 345 345 343 342 343 344 344 342 342 341 339 340 340 338 334 331 330 329 328 327 329 332 336 337 338 340 342 344 343 342 342 340 338 340 343 344 344 343 343 343 343 342 342 343 343 344 344 345 344 343 343 343 344 343 341 340 342 343 343 343 342 341 341
348 349 349 349 351 351 354 356 356 357 357 357 358 359 357 355 355 354 354 354 353 352 352 352 352 351 351 351 350 351 350 348 347 345 344 344 343 342 343 343 342 342 341 339 339 340 340 337 332 331 330 329 330 330 333 338 339 338 340 343 344 344 343 343 342 341 341 342 343 343 344 343 343 343 344 343 342 343 344 344 344 344 344 343 343 343 343 343 342 341 341 342 343 343 342 341 341
348 349 351 352 353 352 355 356 354 357 357 356 358 358 356 355 355 354 355 354 353 353 353 352 350 352 352 350 350 349 350 349 345 344 343 344 343 343 343 343 343 342 340 338 339 339 340 341 338 338 337 336 337 337 339 340 340 340 342 344 344 344 343 342 342 341 342 342 342 342 342 343 343 343 343 343 343 344 345 344 343 345 344 343 343 343 343 343 343 342 341 342 342 342 342 341 341
349 350 352 354 356 355 356 355 355 359 357 355 356 356 355 356 355 354 357 355 354 353 352 351 350 353 352 350 351 350 351 348 344 343 343 343 343 343 343 342 342 341 339 338 339 340 342 343 343 342 340 339 339 339 340 340 341 342 343 344 344 343 343 342 342 342 343 342 342 342 342 342 343 344 343 343 343 344 344 343 343 345 344 343 343 343 342 341 341 341 341 341 340 340 340 340 340
350 352 352 354 358 356 355 357 356 358 357 355 356 356 356 356 354 355 357 356 354 352 351 351 349 354 352 350 352 351 350 347 344 344 343 343 342 342 342 340 340 339 337 337 339 342 343 344 344 342 338 337 339 340 342 342 343 343 343 343 344 342 342 343 343 343 343 342 342 342 342 342 342 344 343 343 343 342 343 343 342 344 344 343 343 342 340 338 338 339 339 339 339 340 340 340 340
350 351 352 354 356 354 354 357 357 357 357 355 356 356 356 355 354 355 356 355 354 352 351 350 350 352 352 351 352 350 350 347 344 344 342 343 342 341 341 339 338 337 336 336 339 343 344 345 343 340 338 339 341 342 343 343 343 343 343 343 343 343 343 343 343 343 343 343 342 342 342 343 343 343 342 341 341 342 343 343 341 341 342 343 343 341 339 339 339 338 339 340 341 341 341 340 341
351 351 352 355 354 353 354 357 359 359 356 355 356 356 356 354 354 355 354 354 353 351 350 350 351 351 350 351 351 350 349 347 344 343 342 343 342 341 340 339 338 336 337 337 339 344 344 343 341 339 341 342 343 344 344 343 343 343 343 343 342 343 344 343 343 343 343 343 342 342 342 343 343 342 341 340 340 342 342 342 341 339 340 342 342 341 340 339 339 340 341 342 342 341 342 342 342
352 353 352 355 354 354 357 358 359 359 357 357 357 357 355 353 354 355 354 353 352 351 350 350 351 350 350 351 351 351 349 347 345 344 343 343 342 341 340 339 339 337 338 338 340 343 342 339 340 341 342 342 343 345 344 342 342 342 342 343 342 343 343 343 343 342 342 342 341 342 342 343 343 342 342 341 341 342 342 342 340 339 340 341 341 342 340 340 340 342 342 342 342 342 343 343 342
351 354 353 357 355 356 359 360 361 360 360 359 357 357 354 354 355 354 354 353 352 351 351 350 350 349 350 351 351 350 349 347 345 345 344 343 342 341 339 339 339 338 339 340 341 341 338 339 342 342 343 343 343 344 343 342 342 342 342 342 342 342 343 344 343 342 342 342 342 342 342 342 343 343 343 342 342 342 342 342 341 340 341 341 340 341 340 341 342 343 342 342 342 342 342 342 342
351 353 354 358 357 358 360 360 360 361 363 359 356 356 354 356 356 352 352 353 352 352 351 349 349 349 351 351 351 349 348 347 345 344 344 343 341 340 340 339 340 340 341 341 339 338 340 343 343 343 343 343 342 343 343 343 343 342 342 342 342 342 343 343 343 343 343 342 341 342 342 342 343 344 343 342 343 343 342 342 342 341 341 341 340 340 340 341 343 343 343 342 342 341 342 342 342
352 352 354 357 357 358 359 361 361 362 363 357 355 355 354 357 355 351 352 353 353 352 350 349 348 351 352 351 351 349 348 346 343 343 343 342 340 340 341 340 341 340 339 338 337 340 343 343 343 343 343 343 342 343 343 343 343 342 342 342 343 343 343 343 343 343 343 342 342 343 342 342 342 343 343 343 343 343 343 343 343 342 342 341 340 340 340 342 342 343 343 343 342 342 343 342 342
352 353 355 356 357 358 359 360 359 362 363 357 355 355 356 358 354 353 354 353 352 351 350 350 348 349 350 350 350 348 347 345 343 342 341 340 341 341 341 341 340 338 337 337 340 343 344 343 343 343 343 344 343 343 344 343 344 343 342 342 343 343 344 344 343 343 344 343 342 342 342 342 343 342 342 343 343 343 342 343 343 343 343 342 341 339 339 341 341 342 343 343 342 342 343 342 342
352 353 356 355 356 360 362 361 358 361 364 358 356 357 357 358 355 353 353 352 350 350 351 349 348 348 348 349 349 347 346 344 342 342 340 341 342 342 342 341 339 338 338 340 343 344 343 344 344 344 344 344 344 344 344 344 344 344 343 343 343 343 344 344 344 343 343 342 342 341 342 343 343 342 342 343 343 343 342 343 343 343 344 343 342 340 338 338 339 341 342 342 342 342 342 342 342
352 353 356 357 359 362 363 363 357 359 363 357 357 358 356 357 356 353 352 352 351 351 350 349 349 349 348 348 348 347 345 343 342 341 341 341 342 342 341 339 337 337 339 342 344 344 344 344 344 345 344 344 344 344 344 344 345 344 343 344 344 343 344 345 344 343 342 343 343 342 342 342 343 343 342 342 342 342 342 343 343 343 344 343 343 340 337 337 338 340 342 342 341 341 342 342 342
351 352 355 358 361 360 355 357 356 357 361 357 357 358 355 356 355 352 354 354 351 351 350 349 350 349 349 348 347 346 345 343 342 340 340 341 342 342 341 339 336 336 340 343 344 344 344 345 344 344 344 344 344 344 344 344 345 345 344 344 344 344 344 345 344 343 343 344 343 341 340 340 342 343 342 342 341 342 343 343 343 342 343 343 343 341 338 338 337 339 341 341 340 340 342 343 342
351 351 355 359 357 353 350 352 355 354 356 356 357 358 355 355 353 353 354 354 353 351 349 348 349 349 348 347 346 346 345 343 342 340 340 341 341 341 339 336 333 335 340 343 343 342 343 344 344 344 344 344 343 343 344 344 345 344 343 343 343 344 344 345 345 344 344 343 341 339 339 339 341 341 342 342 341 343 343 342 342 341 342 342 342 341 340 340 337 338 340 338 338 341 342 342 342
349 350 354 356 351 351 351 350 353 353 354 356 357 357 357 355 353 353 354 355 355 352 349 349 349 349 348 346 345 346 346 345 343 341 340 341 341 341 338 332 328 332 341 344 342 341 342 344 344 343 343 343 342 342 344 344 344 343 342 342 343 343 344 345 345 344 344 342 339 338 339 339 340 340 341 341 341 343 342 342 341 339 339 340 340 339 339 339 337 338 339 337 339 342 342 342 342
346 347 348 349 347 348 349 349 353 353 354 355 356 357 357 355 353 353 353 354 354 351 349 349 348 348 347 345 346 347 347 346 344 342 342 341 340 340 335 330 328 333 341 343 340 339 341 343 343 342 341 341 341 341 343 344 343 342 341 342 343 344 344 345 344 343 342 341 339 338 338 338 338 339 340 340 341 342 342 341 340 338 338 339 340 339 338 337 336 337 337 338 342 343 342 342 342
345 346 343 344 344 344 345 348 353 353 353 355 356 357 355 354 354 353 353 353 353 351 350 349 347 347 345 345 346 347 346 345 343 342 341 340 339 336 331 327 326 332 340 341 339 339 340 343 342 341 339 339 341 341 342 344 342 341 341 342 343 344 343 343 342 341 341 341 340 339 339 338 337 338 339 340 340 341 341 341 339 337 337 338 338 338 337 336 336 337 337 340 343 342 342 343 342
344 345 343 343 343 342 342 346 352 352 353 354 355 355 354 354 355 354 353 352 352 351 350 349 348 347 345 345 346 346 345 344 343 342 342 339 334 331 327 325 324 329 338 339 339 340 340 341 340 339 339 339 340 340 341 342 340 341 341 342 343 343 342 342 341 342 342 341 342 341 340 339 338 337 338 339 340 341 340 339 338 336 335 337 337 338 337 336 337 336 338 342 343 342 342 342 342
343 344 343 342 342 342 341 344 350 353 353 354 354 354 354 354 354 354 353 352 352 351 350 349 348 347 345 346 347 347 346 345 345 345 345 342 335 329 326 325 323 327 335 337 339 341 340 339 339 339 339 339 339 339 340 339 339 341 341 341 341 341 341 342 342 342 341 341 341 341 340 339 338 337 337 338 339 340 340 338 336 335 335 336 337 337 337 336 336 336 339 343 343 343 342 341 342
342 342 342 340 340 339 338 342 350 353 353 353 354 354 354 353 354 354 353 353 353 351 350 350 348 346 346 347 348 347 347 346 346 347 347 345 338 330 327 325 323 326 332 334 337 340 340 339 339 339 339 338 337 337 338 338 339 340 341 341 341 341 341 342 341 341 341 340 339 338 338 338 338 338 337 337 338 338 338 338 336 335 335 336 337 337 336 336 336 336 339 342 343 343 342 341 341
337 335 335 335 335 333 330 338 350 353 353 353 353 354 354 352 354 356 354 353 352 350 350 349 348 346 347 348 348 348 347 347 347 347 348 346 340 332 327 326 323 324 330 333 336 339 339 340 340 340 339 337 335 335 337 338 339 340 341 341 341 341 341 341 341 340 340 340 338 337 338 338 338 338 338 338 337 337 336 336 336 335 335 335 336 336 336 336 336 336 338 340 342 343 342 341 341
332 331 331 330 330 328 327 340 351 352 353 353 353 353 353 352 354 357 354 353 352 350 350 349 348 347 348 348 348 348 348 348 348 347 347 345 338 331 327 326 323 324 328 331 334 337 339 340 340 340 339 335 333 334 336 338 339 341 341 341 341 342 341 341 341 341 341 341 340 339 338 339 339 338 338 338 338 337 337 336 336 336 335 335 336 336 337 337 337 337 338 340 343 343 342 342 343
331 330 331 332 330 327 332 347 352 352 354 352 351 352 354 354 354 354 353 353 352 349 349 349 348 348 348 348 348 348 348 348 349 347 347 344 337 332 328 327 325 324 326 329 333 337 339 340 340 340 337 334 332 334 336 337 339 341 341 341 342 341 341 342 342 343 344 344 343 341 340 341 341 340 339 339 340 339 338 338 337 337 337 337 337 337 337 338 339 339 339 341 343 342 342 343 345
332 329 329 332 332 329 335 350 353 351 353 352 350 352 356 355 351 352 353 353 351 349 349 348 348 349 348 348 347 348 348 348 349 348 347 345 342 339 333 329 327 324 325 328 332 336 339 340 340 340 336 333 332 333 335 337 340 340 341 341 341 341 341 343 344 345 345 346 345 345 343 342 343 342 340 339 341 341 340 339 339 339 339 339 340 339 339 339 339 340 341 342 343 343 343 345 345
331 329 331 330 328 330 332 346 354 351 352 352 348 351 359 357 349 351 354 352 351 348 348 348 348 348 348 349 347 347 348 348 348 347 347 346 345 344 338 331 327 326 325 328 331 335 338 340 340 338 333 332 332 333 336 338 340 340 341 341 341 341 343 345 346 346 346 346 346 346 345 344 343 342 341 340 341 342 341 340 339 340 340 341 341 341 341 340 340 341 342 343 344 344 345 345 346
333 328 335 333 325 329 330 342 354 351 351 352 347 350 360 358 350 352 352 351 351 348 347 348 348 348 348 348 347 347 347 347 348 347 347 346 345 345 340 333 329 326 325 329 332 334 337 340 340 338 332 331 332 334 337 339 340 341 342 342 342 343 345 347 347 347 348 347 345 345 345 344 342 341 341 341 341 342 341 341 340 340 340 341 341 341 341 341 341 341 342 344 345 344 345 346 346
340 330 331 331 325 328 328 336 350 351 351 352 349 353 361 355 349 352 352 350 350 348 348 347 347 348 348 348 347 346 347 347 347 347 347 346 345 345 342 338 336 332 326 328 333 335 336 338 340 338 332 330 331 335 338 340 341 342 343 344 344 345 346 347 348 348 349 348 346 344 344 343 341 341 341 342 342 341 342 342 341 340 340 341 340 340 340 340 340 341 342 344 345 345 345 346 345
341 334 329 329 326 326 324 330 345 349 351 353 352 354 358 353 349 352 352 351 350 348 348 347 347 347 347 348 346 346 346 346 347 347 346 346 345 344 344 342 341 339 331 327 329 334 335 337 340 339 334 331 331 334 337 338 341 344 345 345 345 346 346 348 349 349 349 349 346 343 343 343 341 341 341 341 342 342 342 342 341 340 340 340 340 340 340 340 340 341 342 344 345 345 345 345 345
335 331 329 329 326 326 325 326 335 346 353 353 354 354 354 352 350 352 352 351 350 349 348 347 347 347 347 347 346 345 345 346 346 346 346 346 345 344 344 343 342 342 338 332 328 330 334 336 338 339 336 333 333 334 335 337 341 344 345 345 345 345 346 348 348 349 349 347 344 342 342 342 342 341 342 342 342 342 342 342 341 341 341 340 340 340 340 340 341 342 342 344 344 345 345 346 345
332 329 327 327 327 327 328 325 327 342 354 353 354 354 353 352 351 351 352 351 350 349 349 348 346 347 347 347 347 345 344 345 345 345 345 345 345 344 344 343 342 342 342 340 334 330 330 333 336 339 338 335 335 336 337 339 341 344 345 344 344 344 345 348 348 349 348 344 341 341 340 341 342 342 342 343 342 342 342 342 342 343 342 340 340 340 340 341 342 343 344 344 345 345 345 346 346
330 330 329 328 328 327 329 329 327 337 349 351 354 355 352 352 351 351 351 351 351 350 349 348 347 347 347 347 346 346 344 344 344 345 345 344 344 344 343 343 343 342 342 342 341 335 331 329 331 337 339 337 337 338 340 341 340 342 343 342 342 343 345 348 348 348 346 342 341 340 340 341 342 344 343 342 341 341 342 341 341 342 341 340 340 340 340 341 343 343 344 344 345 345 345 346 346
330 330 331 329 329 329 328 330 327 330 335 335 341 350 352 352 350 350 351 351 350 351 349 348 348 347 347 347 347 346 345 344 343 344 344 344 344 343 343 343 342 343 343 342 343 341 336 332 329 332 338 339 338 339 341 341 340 339 339 339 341 343 345 348 348 348 346 343 342 341 340 340 343 344 343 342 342 342 342 341 340 341 340 339 340 340 341 342 344 344 344 345 345 345 345 346 346
331 330 329 329 330 331 331 330 327 324 325 327 331 335 341 346 348 349 350 351 351 350 351 349 348 348 347 347 347 347 346 344 343 343 343 343 343 343 343 343 343 342 343 343 343 343 341 338 334 330 333 338 339 339 341 341 340 339 338 338 341 343 345 348 348 349 348 345 343 341 340 340 342 344 344 343 342 342 341 342 341 342 341 340 340 341 342 343 344 345 344 345 345 345 345 345 346
331 331 329 330 330 328 330 332 328 323 324 326 326 327 332 338 345 349 349 350 351 350 351 350 349 348 347 347 347 347 347 346 344 343 343 343 343 343 343 342 343 343 343 343 343 343 342 342 340 334 330 335 339 340 340 342 342 340 339 340 343 344 345 348 348 348 349 348 345 342 339 339 342 344 344 342 341 341 341 342 342 343 343 342 341 341 342 344 345 344 344 344 344 344 344 344 344
333 332 330 330 330 328 330 331 328 326 326 325 327 336 350 354 349 350 351 349 350 350 350 350 349 349 348 347 347 347 348 347 345 344 343 343 343 342 343 343 343 343 343 343 344 344 344 343 343 339 332 331 337 340 340 342 343 342 341 342 344 344 345 347 348 348 348 349 347 343 340 340 341 343 344 343 342 342 341 342 342 343 344 344 343 342 342 343 344 344 343 343 343 342 343 343 343
332 332 332 330 330 331 331 328 324 324 325 325 328 332 347 363 358 351 351 351 350 349 349 349 349 350 349 348 347 347 348 347 347 346 344 344 344 343 343 343 343 343 343 344 344 344 344 344 343 342 336 331 334 339 340 342 344 343 341 341 342 342 343 346 347 347 348 348 348 345 342 342 342 342 344 344 343 342 342 342 343 344 344 344 344 343 343 343 343 342 342 342 342 341 341 342 341
329 332 333 330 330 331 331 327 323 325 325 323 325 322 326 347 360 356 353 352 352 350 348 349 349 349 349 349 348 348 348 348 348 347 346 345 345 344 344 343 343 344 344 344 345 344 344 344 344 343 339 332 331 337 341 342 343 345 342 339 338 337 339 342 344 347 347 348 348 346 343 342 342 342 343 344 344 344 343 344 344 344 344 344 345 345 343 343 342 341 341 341 341 341 341 341 340
330 331 331 331 332 330 329 326 322 326 326 322 327 324 320 332 351 356 354 353 354 352 349 348 348 348 349 349 349 349 348 348 349 348 347 346 345 345 345 344 344 344 345 344 345 345 344 345 344 343 341 335 332 333 338 342 343 344 343 340 338 337 336 338 342 346 347 348 348 347 344 343 343 343 343 343 344 345 344 344 344 344 344 344 344 344 344 343 342 341 341 340 340 340 339 339 339
331 330 329 329 329 328 328 324 323 326 323 321 329 328 322 332 347 352 353 355 355 354 352 348 347 347 348 349 348 349 349 348 348 348 348 347 346 346 345 345 345 345 345 345 345 346 345 345 344 344 342 338 334 333 334 339 342 344 344 342 339 338 338 339 341 345 347 348 348 347 346 344 343 343 343 343 344 345 345 345 345 343 344 344 344 343 344 344 343 342 341 340 340 339 339 338 339
328 326 326 326 326 326 326 324 323 323 320 321 326 324 320 328 344 350 352 354 354 353 352 348 347 347 347 348 348 347 348 348 348 348 349 348 348 347 347 346 346 345 346 346 346 346 345 345 344 344 343 340 337 335 333 334 338 342 344 343 340 338 339 340 342 344 346 347 347 347 346 343 343 343 343 343 344 345 345 345 345 344 344 345 344 343 343 342 342 342 340 340 340 340 339 339 340
323 324 325 324 326 327 331 335 327 320 322 326 325 322 318 321 337 350 352 352 354 352 351 350 348 348 347 347 347 347 347 347 348 348 348 349 348 348 348 347 347 346 346 346 346 346 345 345 344 344 344 343 340 337 336 333 334 335 339 341 340 338 338 339 341 343 345 346 346 347 345 342 342 342 342 343 343 343 344 345 345 345 345 345 344 345 344 343 342 340 338 338 339 340 339 340 340
320 326 326 324 329 329 329 334 324 317 325 332 327 321 317 318 328 339 340 341 345 348 350 351 348 348 348 347 347 347 347 346 347 347 347 348 348 348 348 348 348 347 347 347 346 347 346 345 345 344 344 344 342 339 338 336 336 335 335 336 337 338 337 337 338 340 343 345 345 346 344 341 341 341 341 342 342 341 342 342 344 345 345 344 344 345 345 344 343 341 337 336 338 339 339 340 340
319 327 328 324 327 326 324 327 324 322 327 327 324 320 318 321 326 333 336 334 334 340 344 347 349 349 349 348 348 347 347 346 346 346 347 347 347 348 348 348 348 348 347 347 347 347 346 346 345 344 344 345 343 341 339 339 339 339 338 335 335 336 337 336 336 337 340 343 345 345 343 341 341 340 340 340 341 340 340 340 341 343 344 344 344 345 345 345 344 342 339 337 337 338 339 339 340
318 323 327 325 325 323 324 327 324 323 324 322 322 320 318 325 330 335 339 335 334 338 339 340 345 348 349 349 349 348 348 347 346 346 346 346 347 347 347 348 348 348 348 347 347 347 347 346 345 345 345 344 344 343 341 339 339 340 340 338 335 334 335 336 335 334 336 340 343 344 342 340 339 339 338 338 338 339 340 340 340 341 343 343 344 345 345 345 345 344 342 340 338 337 337 338 340
317 320 324 327 330 328 325 328 325 322 323 320 318 318 319 325 331 335 337 336 336 337 336 337 339 343 348 350 349 349 349 348 347 347 346 346 346 346 347 347 347 348 347 347 347 347 346 346 345 345 345 345 345 344 342 339 338 339 340 341 339 336 334 334 335 334 335 337 340 342 342 341 339 338 338 338 337 338 340 341 340 340 341 341 343 345 345 345 345 345 344 343 340 338 337 338 340
316 319 321 322 326 327 325 328 329 325 324 320 318 320 323 326 329 332 335 336 336 336 336 336 336 339 344 348 350 350 349 349 348 347 347 347 346 346 346 346 347 347 347 347 347 347 346 346 345 345 345 345 345 345 344 341 338 337 339 340 341 338 335 333 333 334 334 335 337 339 340 340 340 340 340 340 339 338 339 340 341 340 340 340 341 343 345 345 346 346 345 344 343 341 339 338 339
320 319 320 318 319 322 323 324 329 328 321 320 325 328 328 330 329 328 333 336 335 335 335 335 336 336 339 344 348 350 350 350 349 349 348 347 347 346 346 346 346 346 347 347 347 346 346 346 346 345 345 345 345 345 345 343 340 337 337 339 340 340 338 334 332 332 332 333 335 336 337 338 339 340 342 342 342 340 340 340 340 340 340 340 341 342 344 345 346 347 346 345 345 344 342 339 337
321 320 318 317 317 321 324 324 328 328 321 321 330 332 328 330 329 328 335 337 333 333 334 335 335 335 336 339 342 346 349 350 350 349 349 348 347 347 347 346 346 346 346 346 347 346 346 346 346 345 345 345 346 345 345 345 342 339 337 337 337 338 338 336 333 331 330 331 333 333 334 334 336 338 341 342 343 343 342 341 341 341 341 341 341 342 343 344 345 346 347 346 346 346 344 341 338
317 316 314 318 320 323 326 324 322 324 323 322 327 331 328 325 323 326 336 337 333 333 333 333 335 335 335 336 338 342 345 349 351 349 349 349 348 348 347 347 346 346 346 346 346 346 346 346 346 346 345 345 346 346 345 345 344 342 340 338 337 336 336 337 336 333 330 329 330 331 331 331 332 335 338 341 342 342 343 343 341 341 342 342 342 341 341 342 343 344 345 346 347 347 345 343 340
313 312 312 315 320 321 323 323 321 324 329 325 325 331 331 324 320 327 337 336 333 333 332 332 334 334 334 335 335 338 343 347 349 350 350 349 349 349 348 348 347 346 346 346 346 346 346 346 346 345 345 345 346 346 345 346 345 344 342 340 339 338 336 337 336 335 332 328 327 329 330 330 330 331 334 338 340 341 342 342 341 340 340 341 343 343 342 341 342 342 342 343 344 345 346 345 342
311 312 311 311 314 318 320 320 319 323 330 331 334 336 330 323 323 330 336 335 332 332 331 332 333 333 334 334 333 335 339 344 347 349 351 350 349 349 348 348 348 347 347 346 346 346 346 346 345 345 345 345 346 346 346 346 345 345 344 342 342 340 339 338 337 336 334 331 328 328 328 329 329 329 331 334 338 340 341 340 340 339 337 337 339 341 342 342 342 341 341 340 339 340 342 344 343
310 311 311 310 312 318 325 323 317 321 327 328 334 336 326 322 328 332 333 333 332 332 331 331 332 332 333 333 333 334 336 341 345 347 349 350 350 349 348 349 348 347 347 346 346 346 345 346 346 345 346 345 346 346 346 346 346 345 344 344 344 343 341 340 338 336 335 333 331 328 327 328 329 329 329 330 332 335 336 336 336 335 334 333 332 334 337 338 340 341 340 339 338 338 339 341 343
Wind_Speed
11 13 15 14 12 9 7 5 1 1 1 2 2 1 0 0 1 2 2 2 3 2 5 13 16 14 8 5 7 7 7 6 3 2 3 12 27 29 28 30 28 27 26 25 24 22 20 19 17 16 16 16 15 14 13 13 14 13 13 12 11 11 10 8 7 6 5 5 5 5 5 4 4 5 6 6 6 6 7 7 8 8 8 9 8 8 9 10 9 8 9 9 9 9 9 10 11
14 14 13 12 10 5 3 4 1 1 1 2 1 0 1 1 1 2 3 2 3 6 12 17 16 12 10 11 12 10 7 3 2 7 12 25 32 28 29 29 27 27 26 25 24 23 21 19 17 15 16 16 15 14 13 14 14 13 13 12 11 10 9 7 6 6 5 5 6 6 6 6 6 6 7 7 7 7 7 8 9 9 9 9 8 8 9 10 10 8 9 9 9 9 9 9 10
14 12 10 10 6 3 2 2 1 1 1 2 1 1 1 1 3 4 4 6 9 13 17 17 14 11 11 11 7 5 3 3 8 16 21 31 33 30 30 28 27 26 25 25 23 23 21 19 17 16 17 16 15 15 14 14 14 13 12 10 9 8 8 7 6 6 6 6 7 7 7 6 6 6 7 7 7 7 8 9 10 10 10 9 9 9 10 10 9 8 9 9 8 9 9 10 10
12 9 8 6 3 2 1 1 1 1 1 1 1 2 2 2 4 5 7 11 13 14 14 12 8 8 8 7 5 5 4 4 13 22 26 31 32 33 31 29 27 25 25 24 23 23 21 18 17 17 17 17 16 16 15 14 13 12 10 9 8 8 8 7 7 7 7 7 7 7 7 6 6 6 7 7 7 7 8 9 10 11 11 10 9 9 11 10 9 8 9 9 9 9 9 9 10
10 8 5 3 1 0 0 1 1 1 2 1 1 1 2 2 5 6 9 11 11 10 9 7 5 7 10 7 3 3 5 9 16 23 30 32 32 33 32 30 28 26 25 23 24 22 20 18 18 18 17 17 16 15 14 13 12 10 9 9 8 8 8 8 8 7 8 7 7 7 7 7 6 7 7 6 7 7 8 9 9 11 11 11 10 10 11 11 10 9 9 9 10 9 9 9 10
9 7 4 2 1 1 0 1 2 2 2 1 1 1 2 3 6 8 9 11 11 10 8 7 8 9 9 8 5 6 8 10 18 25 32 33 32 33 31 30 28 26 24 24 24 22 20 18 18 17 16 16 15 14 13 12 11 9 9 10 9 9 9 9 8 8 8 7 7 7 7 7 6 7 6 6 7 7 8 8 9 10 11 11 11 10 11 12 11 10 8 10 10 10 9 8 9
7 5 3 2 2 1 0 2 2 2 1 1 1 2 3 4 7 8 7 7 9 9 7 10 15 12 6 5 7 8 4 6 21 29 32 34 33 32 30 29 27 26 24 24 23 21 20 18 17 16 15 15 14 14 12 11 10 10 10 10 10 9 9 9 8 9 8 8 7 7 7 6 6 6 6 6 6 7 7 7 8 9 11 11 11 11 11 11 11 10 9 10 10 10 9 8 8
5 2 1 1 1 0 1 2 2 1 1 0 1 2 4 6 8 6 3 3 5 7 10 14 14 9 4 3 5 4 2 8 24 30 32 33 32 31 30 29 27 26 25 25 23 21 19 17 17 15 15 14 13 13 12 11 10 10 10 9 9 8 9 9 8 8 9 8 7 7 7 6 5 5 5 5 5 7 7 7 8 8 9 11 11 12 11 11 10 10 10 10 9 9 9 8 7
5 2 1 1 1 0 2 2 2 1 1 2 3 4 5 7 6 4 3 4 6 10 12 11 7 6 6 8 7 5 5 13 25 30 32 33 32 31 29 28 27 26 26 24 22 20 18 17 16 14 14 13 13 13 11 11 10 10 9 9 9 8 9 9 8 9 8 8 8 7 6 6 5 5 5 5 5 6 7 8 8 7 9 10 11 12 11 11 11 11 11 10 10 9 8 8 7
3 2 1 1 1 1 1 2 1 0 2 2 3 5 5 6 6 5 4 5 7 10 10 8 6 10 10 9 8 6 8 16 27 30 32 32 31 30 28 27 25 26 26 24 21 19 18 17 15 13 13 13 13 12 12 11 10 10 9 9 9 9 8 8 8 8 8 7 7 7 6 5 5 5 6 6 5 6 7 7 8 8 9 10 11 11 10 11 11 11 11 11 10 9 8 8 8
2 2 2 1 1 1 1 2 2 1 2 2 3 4 4 6 7 5 6 6 6 9 10 9 8 15 12 7 7 7 11 19 28 31 32 32 30 29 27 26 24 24 25 24 21 19 18 16 14 13 13 13 12 12 12 11 10 10 9 9 8 8 8 7 8 8 8 7 7 7 6 5 5 5 6 7 6 7 7 7 8 9 9 10 10 10 9 10 11 11 11 11 10 10 10 10 9
1 0 0 1 0 1 1 2 2 1 2 2 2 3 5 8 6 4 6 6 7 10 10 8 11 15 9 5 10 11 14 21 28 31 32 31 29 28 26 25 24 24 23 23 21 19 17 16 15 14 13 13 12 11 11 11 10 9 9 9 8 8 8 8 8 8 8 7 7 7 7 5 5 6 6 7 7 7 8 8 9 9 10 10 10 9 9 10 10 11 11 11 11 11 11 11 10
3 0 1 1 1 2 1 1 1 1 0 1 3 4 8 7 4 7 7 7 9 8 5 9 16 14 6 8 14 15 18 22 27 30 31 30 29 27 26 25 24 24 23 22 21 19 18 17 16 14 13 12 12 11 11 11 10 10 9 9 8 8 8 8 8 8 8 7 7 7 7 5 6 6 7 7 7 8 8 9 9 10 10 10 11 9 8 9 10 10 11 11 11 11 12 12 11
5 1 1 0 1 2 1 1 1 1 1 1 4 7 9 3 5 10 9 9 5 3 5 13 19 12 8 12 14 19 21 24 28 29 31 30 28 27 26 25 24 24 23 22 20 19 18 17 15 14 13 13 12 12 12 11 11 10 9 9 9 8 8 8 8 8 8 7 7 7 6 5 6 7 7 7 8 8 8 8 9 10 9 10 11 9 8 9 9 10 11 11 11 11 11 12 12
6 3 1 0 2 2 1 1 1 2 2 2 5 10 9 3 7 10 9 8 2 8 12 15 18 7 9 11 13 25 25 26 29 29 31 30 28 26 26 25 24 24 22 21 21 19 18 17 15 14 14 13 13 12 12 12 12 11 10 10 9 8 8 8 8 7 8 7 7 7 6 6 6 7 7 7 7 8 8 8 9 10 10 10 10 9 8 8 9 10 10 10 11 11 11 11 12
6 4 1 1 2 1 2 1 1 1 2 2 7 11 8 4 9 9 7 7 8 14 10 14 14 2 11 14 17 30 28 30 31 30 32 29 28 26 26 25 24 23 22 22 21 19 17 17 15 15 14 13 13 12 12 12 12 12 11 10 9 9 8 8 8 8 8 8 7 6 6 7 7 7 7 7 8 8 8 8 8 9 9 10 10 8 8 9 9 9 10 10 11 11 11 11 11
4 3 0 1 2 2 2 3 2 2 2 4 9 10 7 5 9 9 7 10 15 13 5 12 8 4 17 17 22 33 30 32 31 31 32 30 29 27 26 25 24 23 22 22 20 18 17 17 16 15 14 13 13 12 12 12 12 12 11 11 10 9 9 8 8 8 8 8 8 7 7 8 8 8 8 8 9 9 8 8 8 9 9 9 9 8 8 9 9 10 10 10 11 11 11 11 11
4 1 1 2 2 3 2 4 4 3 3 5 10 11 8 7 9 12 11 10 13 9 6 11 5 8 18 16 27 33 31 33 31 33 33 31 30 28 28 26 25 24 23 22 19 19 18 16 16 15 15 14 13 12 12 13 12 12 11 11 10 10 10 9 8 7 8 8 8 7 7 7 7 8 8 8 8 9 8 8 9 8 8 8 8 7 8 8 9 10 10 10 11 11 11 11 11
5 1 0 3 3 3 3 2 5 4 5 7 10 11 8 9 13 14 10 8 11 8 9 13 13 16 17 20 32 32 31 33 31 33 33 32 31 30 29 27 26 24 24 22 20 19 18 17 16 15 15 14 13 12 12 12 11 11 11 11 10 10 10 9 8 8 8 8 7 6 6 7 7 7 8 8 8 8 8 8 8 8 7 7 8 7 7 7 8 10 10 9 10 11 12 11 11
6 3 1 4 4 4 6 3 7 5 9 11 9 10 8 11 16 14 9 8 9 7 11 15 19 22 23 30 34 31 31 31 31 32 32 32 31 30 30 28 27 25 24 22 21 20 18 17 16 15 15 14 14 13 12 11 11 11 11 11 11 10 9 9 9 8 8 7 6 6 6 7 7 7 7 7 7 8 8 8 8 8 7 7 8 8 7 6 8 10 9 8 9 10 11 11 12
5 5 3 4 3 2 7 3 5 6 13 15 11 9 7 13 17 14 13 9 4 9 16 18 23 29 32 36 35 32 31 30 31 31 32 32 30 30 29 27 26 25 23 22 22 20 18 18 16 16 15 14 14 14 13 12 12 12 12 11 11 10 10 9 9 8 8 7 6 6 6 6 7 7 7 7 7 7 7 7 7 8 7 6 7 8 7 7 8 9 8 8 8 9 9 10 11
3 5 7 9 7 5 9 5 4 8 14 15 11 9 9 15 15 16 18 9 6 15 19 19 26 31 35 38 36 33 30 31 31 30 32 31 30 30 28 27 26 25 23 22 22 20 20 18 17 16 15 15 15 14 14 13 12 12 12 12 11 10 10 10 9 8 8 7 6 5 5 5 6 6 6 6 6 6 7 7 7 7 6 6 7 7 7 7 8 8 8 8 8 8 8 9 10
4 5 8 12 12 8 10 6 7 11 15 14 11 10 13 14 9 16 20 9 6 17 20 19 26 29 35 40 36 34 33 32 32 31 32 30 31 30 28 27 25 25 24 22 22 20 20 19 17 17 16 16 15 15 14 13 12 12 12 12 11 10 10 10 9 8 7 6 6 5 5 5 6 6 6 6 6 6 6 7 7 6 6 7 8 8 9 8 8 8 8 8 8 8 8 8 9
5 5 6 13 15 12 14 10 9 14 17 16 14 12 15 13 8 14 19 10 4 15 20 20 25 30 37 39 35 35 34 33 32 31 29 29 29 28 28 26 23 24 24 22 22 20 20 19 18 17 16 16 15 15 14 13 12 12 13 12 11 11 10 9 8 7 6 6 6 5 5 5 6 6 7 6 6 6 6 7 7 7 7 8 9 10 10 10 9 9 9 8 7 7 8 8 8
6 6 9 11 13 15 18 12 12 16 15 15 14 11 13 13 10 11 17 13 7 16 21 21 28 33 37 37 34 34 33 32 32 29 27 26 27 27 27 25 23 24 23 23 21 20 20 19 19 17 16 16 15 15 14 13 13 12 13 12 12 11 10 9 8 6 5 5 5 5 5 5 6 6 7 7 7 6 6 7 7 8 8 9 9 10 10 10 10 9 9 7 6 6 6 8 9
5 8 11 9 13 19 17 11 15 17 14 16 13 7 9 11 8 7 15 15 11 20 23 25 31 34 36 34 32 34 34 33 32 29 26 24 26 28 27 25 24 23 23 23 22 21 20 20 19 17 16 15 15 15 14 14 13 13 12 12 11 10 10 8 7 6 5 5 5 5 6 6 6 6 7 7 7 7 7 7 8 8 8 9 9 10 10 10 10 9 9 7 5 5 5 6 8
6 10 13 12 16 19 15 10 15 17 12 17 12 3 8 11 5 4 13 17 17 23 26 28 33 36 36 32 32 34 34 34 32 29 26 25 26 28 28 26 25 24 24 24 22 21 20 20 19 17 16 15 15 16 15 15 14 13 12 12 11 10 9 8 7 6 6 5 5 6 6 6 7 7 7 7 7 7 7 8 8 8 8 9 9 9 9 9 9 8 8 6 4 4 5 6 8
12 13 12 11 13 15 12 7 15 15 8 15 12 5 6 7 3 4 14 20 22 27 28 31 34 36 35 30 31 33 33 34 31 30 28 27 27 28 29 26 25 24 24 24 23 22 21 20 18 16 15 15 16 16 16 16 14 13 13 12 11 10 9 8 7 6 6 5 5 6 6 6 6 7 7 7 7 7 7 8 7 7 7 8 8 8 8 8 8 6 6 4 3 4 5 7 9
13 9 5 7 9 9 7 6 17 15 7 16 14 6 3 7 4 6 16 22 25 28 29 32 34 35 34 29 31 33 33 33 32 32 29 27 26 27 28 25 24 24 24 24 23 22 21 20 18 16 15 15 17 17 17 16 15 14 13 12 11 10 9 8 7 6 6 5 5 5 5 5 5 5 6 6 6 6 7 7 7 7 7 7 7 7 7 7 6 5 5 4 4 5 6 8 8
9 4 0 3 7 5 4 5 15 11 8 20 15 1 5 8 7 8 18 25 27 28 29 32 32 33 33 29 30 33 33 34 34 33 30 28 26 24 25 24 23 22 23 24 23 23 21 20 18 17 16 16 17 18 17 16 15 15 14 13 11 10 9 7 6 5 5 4 4 4 4 4 4 4 5 5 5 5 6 6 7 7 7 7 7 7 7 6 6 5 6 5 5 5 6 6 7
3 2 1 2 2 4 6 3 13 7 8 21 12 3 5 6 8 12 21 29 29 27 27 30 31 32 33 30 30 32 34 35 34 33 30 29 26 23 23 24 23 22 23 24 23 22 21 20 19 18 17 17 18 18 18 17 16 15 14 13 12 10 9 7 6 5 4 4 4 4 5 5 4 4 5 5 5 5 5 6 7 8 8 8 8 7 7 7 6 6 7 7 7 5 5 5 5
2 1 2 3 0 4 7 2 12 6 6 18 8 3 5 4 8 17 22 29 30 27 27 29 30 31 32 30 29 31 33 34 34 33 31 29 27 25 23 23 23 22 23 24 23 23 22 21 19 18 18 18 19 19 18 18 17 16 14 13 12 11 9 7 6 5 4 3 4 4 4 5 5 5 5 5 5 5 6 6 7 8 9 9 9 9 9 8 8 8 9 8 7 5 5 5 4
3 1 1 2 1 3 5 1 8 5 5 10 7 2 3 4 9 20 23 27 28 25 26 29 31 32 32 31 30 30 32 33 34 34 32 30 29 27 25 24 22 21 23 24 24 24 23 22 20 20 20 19 20 19 19 18 17 16 15 13 13 11 10 8 6 5 4 4 4 4 5 6 6 6 6 6 6 6 6 7 8 8 9 9 9 10 9 9 9 9 10 9 7 6 6 5 4
3 2 1 1 1 2 3 3 3 3 5 7 8 4 4 4 7 21 24 26 25 23 25 28 30 31 31 31 30 31 32 34 36 36 34 32 30 29 27 24 21 20 22 24 25 24 23 23 22 21 21 20 20 20 19 18 17 17 15 14 13 12 10 8 7 6 4 4 5 6 6 7 7 7 7 7 7 7 7 8 8 8 9 9 9 9 10 9 9 9 10 10 8 7 6 6 5
1 1 2 2 2 2 3 3 1 4 3 5 7 7 8 4 4 17 24 26 24 23 25 27 29 30 30 31 30 31 33 35 37 37 35 34 31 30 29 27 23 21 21 23 24 25 25 23 23 22 22 22 21 20 19 18 18 18 16 15 14 12 11 10 8 6 5 5 6 7 7 7 8 8 8 7 7 8 8 9 9 9 9 9 9 9 10 10 9 9 9 10 9 8 7 6 4
5 3 2 1 2 2 4 4 4 5 4 4 6 7 10 6 4 12 20 26 24 21 23 25 27 28 29 30 30 30 33 36 37 37 36 35 33 31 30 29 26 23 21 21 23 25 26 25 24 24 24 23 23 22 21 20 20 20 18 17 16 14 12 11 9 7 6 6 7 7 7 8 8 8 8 7 7 8 8 9 10 9 9 10 10 10 10 10 10 9 9 9 9 9 7 6 5
4 2 1 2 2 3 4 5 6 4 5 5 7 8 11 8 5 10 19 23 20 19 20 22 25 28 29 30 31 31 31 34 35 36 36 36 34 32 31 30 28 26 25 23 23 25 27 26 25 25 25 25 24 24 23 22 23 22 21 19 18 15 13 11 9 8 7 7 8 8 8 9 8 8 8 7 7 7 8 9 10 10 10 10 11 11 10 10 10 10 10 10 9 9 8 6 5
2 1 1 3 2 4 5 5 6 2 4 5 5 7 10 8 6 10 17 18 17 21 23 24 27 29 30 31 32 32 29 29 32 35 37 37 36 34 33 32 31 29 28 26 24 24 25 26 26 26 25 25 26 25 24 24 23 23 22 20 18 15 13 11 9 7 7 7 7 7 8 9 8 7 7 8 8 8 8 9 10 10 10 10 11 12 12 12 11 11 11 10 10 9 8 7 6
2 1 1 2 3 3 5 5 3 1 2 4 3 4 8 9 8 10 16 18 20 28 30 30 32 31 31 33 34 33 30 28 31 35 37 38 37 36 35 35 33 31 28 27 25 24 25 26 25 26 26 26 26 26 25 25 23 22 22 20 17 15 13 11 9 7 7 7 7 8 8 8 8 7 7 8 8 8 8 9 10 10 10 11 11 12 13 12 12 11 11 10 9 9 7 7 7
2 3 2 3 2 1 2 4 3 2 2 5 3 3 6 7 6 8 18 23 23 28 30 29 31 34 36 37 36 34 33 31 31 34 37 38 38 38 38 37 34 32 31 28 27 27 27 26 25 26 27 27 27 27 27 25 23 22 22 19 15 14 13 11 11 10 9 9 9 9 9 9 8 7 7 8 8 8 8 9 10 10 11 11 11 12 13 12 12 11 11 10 9 8 7 8 8
2 4 4 3 2 3 4 4 6 5 4 4 1 2 5 4 4 5 12 19 18 21 24 22 26 32 33 32 32 34 34 34 33 34 36 38 39 39 39 38 36 35 34 31 28 28 28 27 26 25 27 28 28 28 27 26 25 22 22 20 17 16 16 15 14 13 12 12 11 10 10 9 8 8 8 8 8 8 9 9 9 9 9 10 10 12 13 13 13 13 12 10 9 8 8 9 8
3 4 7 6 5 5 6 3 5 5 4 2 3 4 5 4 3 5 6 10 12 15 18 20 25 29 27 27 30 34 34 35 36 35 36 36 37 39 39 39 38 37 36 33 30 28 27 27 26 25 27 29 29 28 28 27 26 24 23 22 21 21 20 19 18 16 14 13 12 11 10 10 9 9 9 9 9 9 9 9 8 8 8 9 9 11 13 14 15 15 13 11 10 9 9 9 8
1 4 7 8 7 6 6 2 1 0 2 3 4 4 4 5 3 6 6 9 10 11 14 19 25 27 27 30 31 33 34 35 36 36 36 37 38 39 41 41 40 39 37 34 31 29 28 28 27 26 26 29 30 30 29 28 28 26 24 23 23 23 22 20 18 16 15 13 12 11 11 11 10 9 9 9 10 10 9 9 8 8 8 9 10 11 13 15 16 15 14 12 11 10 10 9 7
3 5 6 7 7 6 5 4 3 3 3 4 4 4 2 4 5 5 6 8 8 9 11 15 23 27 29 30 32 34 36 36 37 37 38 39 40 40 41 42 41 40 38 36 34 32 30 30 29 27 26 28 31 31 30 29 29 28 25 25 24 23 22 20 18 16 15 14 13 13 12 11 11 10 10 10 10 10 10 9 8 9 9 10 11 11 13 15 17 17 15 13 12 11 11 9 7
6 6 7 6 7 7 5 5 4 2 2 5 6 1 2 4 6 2 5 7 8 11 13 14 20 27 30 32 35 36 37 39 39 40 41 41 42 42 42 42 42 41 39 38 36 34 32 31 30 28 27 28 31 32 32 30 29 28 27 26 25 24 22 20 18 16 16 15 15 14 13 13 13 12 11 11 11 11 10 9 9 9 10 10 11 11 13 15 17 18 17 15 14 12 11 9 8
4 4 6 4 4 5 4 5 4 1 2 4 6 1 1 4 5 1 4 5 9 13 12 12 18 26 30 34 38 38 37 39 40 41 43 44 44 43 42 42 42 42 41 39 37 35 34 33 33 31 29 28 30 32 33 31 30 29 28 27 27 26 24 22 20 18 17 17 16 15 14 14 14 13 12 12 12 11 10 10 10 9 10 10 10 11 12 14 15 16 17 16 15 14 12 10 9
1 3 2 3 2 1 3 2 3 3 1 6 7 4 4 2 5 0 1 5 9 11 10 10 15 24 32 36 37 38 38 38 40 41 42 43 44 43 42 42 43 43 42 41 40 38 37 36 35 33 31 29 29 31 32 32 31 30 29 28 28 27 26 24 23 21 20 19 18 17 16 15 15 14 13 13 12 11 11 11 11 10 10 10 10 11 12 13 13 14 15 16 16 15 13 12 10
1 2 2 3 1 3 4 3 2 4 3 6 5 4 7 2 3 3 7 9 7 6 9 12 17 24 32 35 35 36 37 38 38 40 41 41 42 42 42 43 43 44 43 43 42 41 39 38 37 35 33 31 30 30 31 31 30 30 30 29 29 28 27 26 24 23 23 21 20 19 18 17 16 15 15 15 14 12 12 12 12 11 11 11 10 10 11 11 12 13 13 15 16 16 14 12 10
4 4 4 4 1 2 1 1 1 3 4 5 3 3 4 4 3 4 10 12 12 11 9 9 16 25 30 32 35 35 35 37 38 38 40 40 41 42 44 44 44 44 45 45 44 43 41 40 39 38 35 33 31 30 30 30 30 29 29 29 29 29 28 27 25 24 24 22 20 20 21 19 18 17 16 16 14 13 12 12 12 12 12 11 10 10 10 10 11 11 12 14 16 16 14 13 11
3 3 4 4 2 2 2 3 0 2 4 3 2 1 1 2 1 6 10 10 13 18 21 20 13 18 27 30 32 34 35 35 37 37 39 40 42 43 44 45 45 45 46 46 45 44 43 41 41 40 37 34 33 31 31 30 30 29 28 28 29 29 29 28 27 25 24 23 22 21 22 21 19 18 17 15 14 14 13 13 12 12 12 11 11 10 10 10 10 10 10 11 12 14 14 13 11
1 3 4 4 4 4 3 3 3 3 3 2 2 2 2 3 3 4 9 12 18 24 26 28 27 16 15 26 26 28 32 35 36 37 40 42 42 43 45 45 46 46 46 47 46 46 45 43 42 41 39 37 35 33 32 31 31 29 28 27 28 29 29 29 27 26 25 25 23 22 23 22 20 18 17 15 14 15 15 13 13 13 12 12 11 10 11 11 10 9 9 9 10 11 13 14 13
2 1 4 3 3 4 2 3 5 4 2 1 1 2 1 3 3 7 14 15 19 26 29 30 31 30 14 14 25 28 32 35 37 38 41 42 42 42 44 45 46 46 46 47 47 47 46 45 43 42 40 38 36 35 33 32 31 30 29 28 27 27 29 29 28 27 26 26 25 24 23 23 22 19 17 15 15 15 15 15 14 13 12 12 11 11 11 12 11 10 10 10 9 10 11 13 13
1 3 2 3 3 4 3 1 1 3 5 2 1 1 5 3 2 11 17 16 18 22 26 26 26 30 27 11 14 27 34 35 37 41 42 43 42 42 43 44 45 46 47 48 48 48 47 46 44 43 42 40 38 36 34 32 31 31 30 29 28 27 27 28 28 28 27 26 26 25 24 23 22 21 19 16 14 15 15 15 15 14 13 12 12 12 12 12 13 12 11 10 10 10 10 11 11
2 2 2 3 2 3 3 1 2 4 4 1 3 4 5 5 3 10 17 19 20 19 18 21 26 29 28 26 21 15 29 36 38 41 42 42 43 44 44 45 46 46 47 48 48 48 47 46 45 43 43 42 40 38 36 34 33 32 31 30 29 28 27 27 27 27 27 27 27 27 25 24 22 21 20 17 16 15 14 14 14 14 14 13 12 12 12 13 14 14 13 11 10 9 9 10 10
4 2 1 1 3 1 1 2 2 2 3 1 3 3 5 5 4 8 15 17 17 16 16 17 22 26 25 27 32 25 17 31 37 37 38 40 43 45 46 46 46 46 47 47 47 47 47 47 46 44 43 42 40 39 38 36 35 33 32 31 30 29 28 27 27 27 28 28 27 27 26 25 22 22 21 19 18 17 16 15 14 14 14 14 13 13 13 13 14 14 14 13 11 10 10 10 9
4 3 3 3 2 2 1 2 2 3 3 3 2 3 4 3 5 6 9 12 13 14 14 13 16 22 25 27 32 33 21 18 32 36 37 41 43 45 46 47 46 46 46 46 46 47 47 47 47 46 45 43 42 40 39 38 37 35 34 32 31 30 29 28 27 28 29 29 29 28 27 25 23 22 22 21 20 20 18 17 16 14 13 13 13 13 13 13 14 14 14 14 13 12 11 10 9
5 5 5 4 3 1 2 2 2 2 3 3 3 3 1 4 4 5 7 9 10 12 12 12 16 21 26 31 33 35 32 17 18 32 37 39 40 42 44 45 45 45 44 45 46 47 47 47 47 47 46 45 45 43 41 40 38 37 35 34 33 32 30 29 28 28 29 30 30 30 29 27 25 24 22 21 21 21 20 18 18 16 15 14 13 13 13 13 14 14 14 14 13 13 12 11 10
5 4 4 3 3 2 4 2 2 1 3 2 4 5 1 3 3 4 6 7 8 12 13 13 18 23 27 34 37 37 36 30 14 18 31 35 35 37 39 40 41 43 44 44 46 47 47 48 47 47 47 46 46 44 43 42 40 39 37 35 33 32 31 30 29 29 30 30 31 31 30 29 28 26 24 23 22 21 20 19 18 18 16 15 14 14 14 15 15 15 14 14 13 13 13 12 12
Wind_Direction
139 137 134 132 128 126 144 155 199 226 208 253 250 284 256 355 328 118 116 128 122 92 102 125 130 124 121 132 134 101 93 135 141 134 168 146 148 155 154 153 155 154 150 148 147 145 148 150 152 154 154 156 153 148 143 142 140 141 145 146 144 140 139 140 143 147 154 159 154 148 143 139 132 126 122 119 119 118 120 123 124 127 134 136 145 149 141 133 132 138 136 133 136 138 139 140 139
137 138 134 131 129 124 153 171 242 257 231 265 280 354 305 330 64 91 99 116 102 120 126 125 119 106 109 118 111 92 77 68 122 122 131 142 148 155 155 156 155 154 152 150 151 149 151 152 154 157 157 155 154 154 149 146 144 147 149 146 142 139 137 137 141 145 151 150 139 130 124 123 123 125 127 126 125 125 127 132 132 130 134 140 151 150 137 131 134 139 137 135 137 136 136 137 136
137 138 134 133 134 139 150 168 255 276 297 321 345 330 325 15 93 84 89 105 113 124 126 121 104 89 101 107 85 75 79 49 131 129 132 146 152 155 157 158 157 155 153 154 154 152 153 155 158 159 155 154 156 156 151 149 149 151 148 143 139 135 132 133 135 138 143 140 132 128 129 134 137 136 135 135 136 136 137 139 138 135 137 145 152 143 131 127 130 134 135 134 131 128 132 134 134
136 135 132 132 136 152 166 210 257 286 322 358 334 349 20 64 109 101 104 112 121 126 125 119 88 73 85 95 84 84 104 121 138 137 142 153 156 155 157 158 158 157 156 156 154 152 155 156 158 157 153 154 155 155 153 152 151 150 146 142 139 136 135 136 136 141 147 144 139 137 140 143 144 140 139 141 141 142 139 140 138 135 138 142 142 134 127 125 126 127 128 127 125 126 127 129 129
134 132 131 137 120 159 283 264 262 290 321 350 303 15 58 108 125 115 111 113 120 128 128 116 88 84 82 83 83 110 139 143 145 146 149 154 156 155 155 158 159 158 157 156 154 153 154 154 153 152 151 153 155 156 156 155 152 150 147 143 142 143 144 143 143 150 153 151 148 144 144 145 147 143 143 143 144 147 140 138 137 132 132 135 132 126 121 121 123 122 122 120 120 122 121 122 121
141 143 159 193 299 284 275 315 302 299 316 291 272 86 111 116 119 119 114 104 103 120 120 102 117 110 84 67 56 121 142 149 154 153 152 154 157 156 156 159 160 159 159 157 154 151 150 151 150 151 152 153 157 161 161 159 154 152 150 147 148 151 150 151 153 154 155 155 152 149 148 149 150 146 143 145 148 145 136 135 134 129 130 130 124 120 116 115 115 115 118 118 116 115 113 113 114
154 161 193 234 293 276 326 310 298 308 300 230 277 127 130 116 122 126 120 103 94 107 110 111 123 109 86 80 73 112 130 167 160 154 153 154 157 158 158 161 162 161 160 157 152 150 149 149 151 153 155 158 161 163 163 159 155 155 155 153 155 157 155 155 157 156 157 157 155 153 153 152 150 145 140 146 149 133 127 131 127 127 128 123 118 115 110 107 107 109 112 111 110 109 109 111 113
174 193 219 266 285 136 304 282 272 267 209 196 54 116 128 127 130 127 108 100 99 105 115 123 123 98 81 115 91 111 114 172 160 154 155 155 157 159 160 162 163 164 162 156 151 150 150 151 154 155 158 162 164 163 163 160 157 159 158 157 158 160 158 156 159 159 157 157 154 153 154 156 150 142 138 139 135 121 121 123 117 119 119 114 112 106 101 102 106 109 110 110 111 113 115 118 117
182 229 268 299 312 354 281 286 269 241 357 35 85 111 116 127 123 104 89 82 104 114 123 135 127 103 109 103 98 121 140 168 160 153 156 156 158 159 160 163 164 165 162 157 153 152 153 154 156 157 160 163 166 165 162 161 160 160 160 161 161 161 161 158 161 158 156 156 154 154 152 151 144 134 128 121 123 124 121 120 119 114 108 107 104 99 99 103 108 113 116 117 117 118 119 118 115
174 249 308 329 315 358 306 319 299 302 25 60 95 113 108 126 114 85 94 89 111 115 123 139 123 120 121 98 96 133 152 165 159 154 158 157 159 159 160 163 164 164 161 160 157 155 156 157 157 157 159 162 167 166 161 162 161 160 161 165 165 163 161 157 158 156 156 156 154 155 148 140 136 128 116 114 129 132 121 121 125 117 109 103 97 97 102 106 108 113 116 113 110 112 111 111 109
155 255 307 348 342 342 281 324 335 4 78 98 92 121 115 129 114 80 87 91 117 121 129 131 117 120 114 94 102 133 153 162 159 156 159 159 160 161 161 163 164 165 163 163 160 158 159 158 159 159 160 161 166 165 161 162 161 163 163 164 168 164 158 156 155 152 154 156 155 148 140 138 135 129 121 124 134 129 122 125 124 119 114 104 97 97 103 107 110 112 111 107 106 105 102 104 106
214 340 349 24 293 252 238 297 306 58 115 131 132 148 139 133 116 106 103 100 127 129 142 147 140 130 104 98 124 138 151 160 162 159 160 161 161 161 162 162 163 166 165 164 162 161 160 159 160 160 161 162 167 166 162 162 163 166 166 164 167 164 157 154 151 151 155 154 154 142 135 143 140 133 129 132 132 130 130 130 126 120 116 108 101 101 105 108 109 109 106 104 102 100 97 99 102
241 27 113 356 223 227 266 282 274 127 115 151 143 156 148 134 122 139 111 109 134 131 157 161 152 137 99 123 135 146 153 161 164 160 162 163 162 162 162 162 163 167 166 165 163 162 161 161 160 161 164 166 170 168 164 165 165 166 167 166 166 165 157 151 150 152 154 152 150 137 135 148 141 131 130 133 132 133 133 132 128 123 119 110 105 105 110 109 109 109 104 102 98 96 96 98 100
228 328 114 294 288 263 266 209 239 144 272 172 132 155 151 117 133 143 119 121 136 145 154 158 155 133 116 134 143 157 158 162 163 161 164 164 163 162 162 164 165 167 166 165 163 162 162 162 162 163 168 170 173 171 167 165 164 164 166 168 167 165 156 150 152 151 148 147 142 133 139 148 136 125 125 132 134 136 134 132 129 126 123 112 109 111 114 112 110 109 103 101 96 92 93 96 98
230 302 55 243 318 305 231 197 194 154 234 182 149 158 143 88 145 141 124 129 130 157 144 153 159 135 151 159 161 165 161 162 163 163 165 164 163 162 164 165 165 166 165 164 163 163 164 163 163 167 170 171 172 172 171 165 160 161 167 168 165 164 157 152 152 148 144 140 138 138 144 144 134 127 126 133 138 136 130 132 130 128 126 116 114 117 118 116 111 107 103 102 98 95 95 93 94
244 276 22 315 300 292 239 176 96 137 238 155 150 158 131 92 149 137 124 127 125 148 143 153 164 207 173 170 169 164 159 161 164 166 164 162 163 162 165 165 166 166 164 165 164 165 166 163 165 168 169 171 172 171 169 164 159 160 167 166 162 163 156 155 154 148 145 139 141 147 149 145 138 134 132 138 139 132 126 129 129 128 129 122 119 121 123 122 115 110 107 102 97 96 95 92 92
263 265 285 315 258 253 234 171 147 169 186 139 154 166 133 112 147 135 131 131 134 149 158 159 180 223 166 165 168 160 156 163 167 167 165 163 164 164 167 168 169 168 166 167 165 167 168 165 168 169 170 172 171 170 167 165 163 163 168 167 162 164 159 162 158 149 147 142 146 152 152 148 144 141 137 140 134 128 127 125 125 126 129 127 125 126 127 128 121 116 113 102 96 93 91 91 92
249 247 191 255 227 208 209 183 174 152 157 150 166 173 145 140 151 138 130 128 137 146 150 152 153 155 157 163 162 156 158 166 169 169 167 166 167 168 169 172 172 171 169 169 168 168 169 169 171 171 173 174 171 172 171 166 167 164 166 167 163 164 162 163 157 149 151 147 147 151 151 146 145 144 136 135 129 125 127 123 121 121 125 128 130 131 131 131 123 118 114 104 97 92 89 87 85
219 184 249 235 223 217 264 195 161 147 161 155 167 177 159 155 155 148 141 134 140 127 128 135 122 132 147 158 157 156 163 169 173 172 170 170 171 172 173 175 175 174 172 171 171 171 171 173 174 174 175 177 174 175 173 166 168 165 162 164 164 166 162 160 157 153 154 150 148 149 147 140 140 139 130 132 132 131 128 123 120 119 127 133 135 138 137 132 123 120 114 106 99 94 92 89 86
209 211 259 236 238 253 295 244 191 194 162 151 164 180 167 162 159 154 146 140 151 151 147 141 134 140 149 156 158 159 166 172 175 175 174 174 176 177 177 177 177 175 174 172 173 173 174 176 177 178 178 179 177 175 174 170 170 167 164 166 167 168 163 160 161 158 154 151 151 148 144 139 139 138 133 136 139 138 131 127 127 128 137 142 146 150 147 141 129 124 118 108 99 93 94 93 92
193 198 223 260 302 293 305 292 206 197 162 155 159 169 163 165 165 157 144 138 183 190 174 164 153 153 154 158 161 164 170 174 176 178 178 178 179 181 181 180 179 176 175 175 176 175 178 179 179 180 180 180 180 177 175 174 173 171 169 170 170 169 164 162 163 162 159 157 155 149 147 144 140 140 138 140 142 141 133 133 133 133 142 145 153 161 157 148 136 130 124 114 103 94 90 89 91
222 239 253 272 298 295 301 311 183 168 153 153 156 165 161 161 168 167 162 160 208 192 181 175 166 161 162 163 164 167 173 176 178 181 180 181 182 183 185 183 180 178 178 178 178 178 180 182 181 181 181 181 181 180 178 177 177 175 172 173 173 170 165 166 166 164 161 158 155 146 143 140 137 139 140 143 145 147 144 142 137 135 147 148 152 165 163 153 146 140 132 122 112 102 93 87 86
243 270 262 271 273 264 281 277 186 168 152 159 169 168 157 154 173 181 180 182 197 188 181 178 174 170 168 166 167 171 177 180 181 182 183 184 185 186 186 185 184 181 181 181 179 180 182 182 181 182 181 182 182 181 180 180 180 176 175 176 174 171 168 167 166 162 158 153 146 139 139 135 135 142 146 150 151 153 152 149 146 148 154 150 149 160 164 159 154 148 140 131 119 108 101 92 86
227 276 273 279 273 262 272 264 205 184 171 172 169 160 163 164 173 182 189 193 186 184 179 178 176 172 169 168 171 175 179 183 183 183 186 187 188 189 187 186 186 185 184 182 181 182 183 181 181 183 182 183 184 183 182 182 182 178 176 176 173 171 168 167 164 159 154 147 139 139 143 138 136 144 150 157 161 161 159 156 157 160 156 148 149 158 164 162 159 154 147 137 118 107 103 97 91
218 253 262 278 276 273 279 263 209 192 178 169 162 164 180 178 168 177 191 195 186 176 174 175 173 170 169 169 174 178 181 185 185 185 187 190 191 191 190 190 189 188 186 184 183 184 184 182 181 184 185 185 185 187 185 180 180 178 176 174 170 168 167 167 166 162 154 145 139 141 146 142 139 143 149 156 166 168 167 164 162 162 156 149 151 157 164 165 163 159 152 141 121 107 102 99 96
205 238 259 275 277 281 284 259 204 189 174 165 163 172 183 173 163 183 192 189 179 172 170 172 171 170 170 172 177 180 183 187 188 188 188 190 192 194 194 193 193 192 188 186 186 185 184 184 183 185 187 187 189 190 186 179 177 175 173 172 168 166 169 173 171 164 156 146 141 142 142 144 144 142 143 147 159 166 167 168 166 163 158 153 153 157 163 166 165 162 158 152 131 112 110 105 99
273 279 279 276 278 286 283 249 195 179 175 173 165 161 177 172 169 199 190 181 170 166 168 171 171 171 172 175 181 183 187 189 190 189 189 191 193 196 196 196 198 195 190 188 188 186 186 185 184 187 188 190 191 190 186 179 176 173 173 173 170 169 173 177 175 167 158 149 144 145 143 144 144 141 140 139 146 153 157 162 167 166 163 160 159 159 162 166 167 166 166 163 142 127 128 116 104
298 302 299 285 293 297 281 229 178 167 171 177 156 96 171 189 236 203 180 175 169 165 166 171 173 173 175 178 183 186 189 190 192 192 191 192 191 195 197 199 200 198 193 189 187 188 188 187 186 188 189 191 190 188 184 178 174 174 177 177 174 176 178 177 175 168 158 155 152 151 151 151 144 138 137 137 140 145 150 155 162 166 168 169 168 168 168 171 174 174 178 179 164 147 139 122 108
301 301 304 296 325 311 264 173 167 169 162 169 147 81 200 216 237 184 174 174 171 168 167 171 174 175 177 180 184 187 190 191 194 196 195 193 190 193 197 200 201 200 195 190 189 188 190 190 188 188 190 191 188 185 181 177 174 176 180 180 179 181 181 176 172 165 159 161 161 162 169 170 159 151 147 143 145 148 153 156 162 166 170 173 176 177 177 179 183 188 193 196 192 167 141 124 111
301 296 237 301 347 323 270 141 163 169 157 165 157 122 240 221 214 179 174 173 168 167 168 172 175 177 179 181 185 188 191 193 197 199 199 196 194 195 198 200 202 202 198 194 191 190 191 191 189 190 190 189 186 182 180 177 175 179 181 180 181 181 176 173 171 167 170 172 174 183 192 189 182 179 172 165 161 160 165 168 172 177 180 183 185 185 183 184 186 189 191 191 192 173 140 124 114
303 295 41 349 354 289 315 88 155 155 167 172 168 285 254 229 201 178 173 172 167 165 170 175 176 179 181 183 187 189 193 197 200 202 201 201 201 200 199 200 202 203 201 198 194 191 193 193 191 191 190 188 184 181 180 178 179 182 183 182 180 177 172 171 170 168 175 182 185 195 206 203 194 191 189 185 182 181 183 184 185 189 192 194 198 199 193 190 188 186 187 188 187 172 142 127 116
359 341 308 341 43 266 321 97 165 154 166 179 176 292 266 267 181 174 174 171 169 167 171 177 178 181 183 186 189 191 194 199 203 205 205 206 206 204 201 199 201 203 203 201 197 194 195 194 193 192 191 188 183 181 181 181 183 183 183 184 179 176 172 169 169 167 174 186 193 197 208 213 203 194 193 194 195 196 197 198 195 193 195 197 200 202 199 194 192 189 188 187 184 172 152 137 123
2 69 257 295 32 299 326 15 188 151 117 183 206 243 265 297 169 170 175 173 170 169 173 178 180 183 185 187 190 192 195 199 204 208 210 210 210 209 205 201 202 203 204 204 201 197 196 195 194 194 193 189 185 183 183 185 186 185 185 183 178 176 174 170 171 176 187 198 204 208 214 214 209 201 197 198 198 197 198 202 200 194 195 197 198 198 196 194 194 193 192 189 184 175 159 145 135
317 14 16 254 74 335 321 339 230 158 124 189 223 235 252 305 163 167 175 178 174 173 177 180 182 185 186 188 191 194 196 199 204 208 211 213 213 212 210 207 205 204 205 207 206 203 199 195 194 196 195 191 189 186 187 190 189 187 187 184 180 179 177 177 180 185 195 208 209 211 215 211 208 206 202 201 200 197 199 202 199 193 192 197 197 197 195 194 194 195 194 191 187 179 165 154 150
201 74 46 318 3 354 299 319 252 191 189 202 211 236 253 289 164 170 176 179 181 182 182 183 184 186 188 190 193 196 199 202 206 209 211 213 214 214 214 212 209 206 206 208 210 208 204 199 196 197 197 194 192 190 190 193 192 188 188 188 186 185 183 183 185 187 192 203 207 206 209 207 207 207 204 204 202 199 200 202 200 194 191 194 196 196 195 191 189 189 188 187 186 181 175 170 168
148 149 135 245 304 306 273 282 259 196 201 233 204 228 248 240 180 177 178 181 186 187 184 185 187 189 191 193 195 198 201 205 208 209 211 212 214 215 214 213 211 208 207 208 210 210 209 205 200 199 200 196 195 193 193 195 194 191 191 193 192 188 186 186 184 184 187 194 200 201 202 202 203 204 203 202 201 200 200 202 202 198 194 194 194 194 192 188 184 183 183 183 183 182 182 182 186
129 125 140 258 275 285 261 267 273 196 173 245 220 223 245 227 192 187 181 182 187 186 185 188 189 191 194 196 199 201 203 207 208 209 211 213 214 215 214 214 213 210 210 210 210 209 209 208 205 203 201 199 198 197 196 198 199 197 196 196 193 189 189 189 185 182 182 185 192 197 199 201 201 200 200 199 198 197 196 198 198 197 195 193 191 188 185 184 185 185 185 183 182 184 187 191 197
107 107 306 305 261 257 256 249 276 228 171 257 239 226 251 237 206 191 182 183 190 188 187 190 191 194 197 199 201 203 204 206 206 208 210 212 214 215 215 215 214 213 211 211 212 210 209 210 210 207 204 202 201 201 199 201 203 203 202 200 194 191 192 191 185 179 180 184 190 195 198 201 201 199 198 199 199 195 192 193 193 193 192 188 186 186 184 184 186 187 188 185 186 190 196 202 207
126 111 92 290 262 280 287 268 292 44 166 271 253 209 251 246 217 195 187 189 195 195 193 192 191 192 197 201 202 203 203 203 204 207 208 210 212 214 215 216 216 215 214 214 215 213 210 210 212 211 208 206 204 204 202 202 205 207 207 204 197 194 195 193 188 185 190 193 192 196 199 200 199 200 199 199 200 197 190 188 189 191 191 189 186 187 187 186 187 189 189 189 192 196 205 212 210
164 148 147 247 251 41 297 286 332 24 221 250 233 208 264 259 226 206 197 195 197 200 200 197 194 195 199 201 201 201 202 203 203 205 207 209 211 212 214 216 217 216 215 216 216 216 214 211 212 212 210 209 208 207 205 204 206 208 208 205 201 201 201 200 199 197 199 201 198 198 200 198 197 199 200 198 197 195 189 185 186 189 193 193 191 191 192 191 192 191 188 189 193 199 207 210 204
254 198 192 204 172 176 229 284 335 336 296 250 193 9 307 276 231 225 200 196 199 200 199 200 201 203 204 203 202 203 204 205 205 205 206 207 209 211 214 217 218 218 217 217 218 219 218 215 214 213 211 210 210 210 208 205 206 208 206 203 203 205 205 205 205 203 202 204 204 202 201 199 199 200 198 195 194 192 189 188 189 191 195 199 198 196 195 195 194 191 188 190 196 204 206 206 204
309 229 207 189 169 206 238 296 353 357 342 290 87 49 306 299 251 230 190 191 196 191 193 200 204 207 207 205 205 206 206 207 208 208 207 207 209 211 214 217 218 219 219 219 219 220 221 221 217 215 214 212 211 212 210 207 207 208 206 204 203 202 202 203 204 203 202 204 205 203 201 201 203 203 200 195 195 193 189 190 193 194 198 204 207 204 200 198 196 192 193 197 202 207 205 204 208
298 243 202 182 176 205 238 258 39 64 282 283 76 95 271 311 284 223 187 193 196 183 193 201 203 205 206 207 207 206 207 208 210 211 210 209 210 212 213 216 218 221 221 220 221 221 222 223 221 218 216 213 212 212 211 210 209 210 210 209 207 203 202 202 202 203 203 204 206 205 203 204 206 208 205 202 199 197 193 192 193 194 197 203 209 211 206 203 200 196 199 203 205 207 203 204 208
226 230 162 150 171 197 216 185 181 230 267 309 16 104 213 297 281 234 175 181 197 193 200 202 202 205 206 208 210 209 208 209 210 211 212 211 212 213 214 216 220 222 223 222 222 222 221 222 222 220 217 215 214 213 213 212 212 213 212 213 213 210 207 205 204 206 205 204 207 208 207 207 210 210 208 206 204 203 201 199 197 194 195 199 206 210 209 208 206 205 206 207 209 209 208 212 218
237 210 156 151 173 185 183 160 187 259 356 318 320 66 161 277 288 291 145 171 205 210 209 203 200 204 206 208 212 212 211 211 211 212 213 214 214 215 216 218 221 223 223 224 224 224 222 222 221 220 218 216 215 215 215 214 215 217 215 215 216 215 213 211 209 209 209 207 206 209 212 210 210 211 209 208 208 207 208 207 202 199 197 199 204 207 209 211 212 213 216 216 215 215 219 226 232
232 157 148 150 159 174 158 145 161 58 41 270 277 248 142 279 291 44 128 185 216 215 214 207 200 202 206 210 212 212 212 212 214 214 215 216 217 217 217 219 221 223 224 225 227 226 224 223 221 220 219 216 216 217 216 215 217 219 219 218 218 217 217 215 213 212 212 211 208 209 211 211 211 212 210 210 211 210 211 211 209 206 204 204 206 208 211 214 216 220 222 220 219 221 227 231 238
210 76 114 106 61 66 84 91 111 79 304 257 256 210 144 288 293 228 167 236 226 215 212 205 201 204 208 211 212 211 211 213 214 216 217 218 219 219 218 219 221 223 224 225 226 227 226 225 222 220 220 218 216 217 216 216 218 220 222 222 220 219 219 218 215 212 212 214 212 209 208 208 212 215 213 214 215 213 212 215 217 215 212 210 208 207 211 215 220 225 225 220 219 223 228 232 240
101 89 107 109 31 21 45 7 72 119 250 263 251 173 133 145 284 315 323 322 312 258 225 210 203 205 207 210 211 210 211 212 213 215 217 217 218 218 218 219 221 222 223 224 225 227 227 226 224 222 220 219 217 217 216 216 218 220 223 224 224 222 221 221 219 215 214 214 213 211 207 206 211 215 216 217 217 218 219 221 221 219 216 212 208 207 208 210 216 221 224 222 222 226 231 236 243
84 113 87 92 16 19 91 279 162 173 247 260 223 138 131 189 209 343 345 348 350 342 321 275 232 215 208 207 208 209 210 212 212 214 216 217 217 217 218 219 220 220 221 223 225 226 227 227 226 224 221 220 219 217 216 216 217 220 221 224 226 224 223 224 225 223 219 217 216 213 210 209 212 215 218 219 219 221 225 225 224 221 219 216 213 212 209 205 207 212 219 224 226 231 237 241 243
48 133 116 121 133 91 183 235 27 207 241 258 249 200 222 218 156 6 357 353 353 357 357 348 311 243 221 212 208 207 208 210 212 212 215 217 217 217 218 219 219 220 222 223 224 225 226 227 227 225 224 222 221 220 218 217 218 220 221 224 227 227 226 226 227 228 225 222 219 216 215 214 215 218 219 220 222 225 227 227 225 222 221 221 219 218 214 207 206 208 214 222 226 230 236 239 241
330 182 138 126 151 140 183 208 160 185 226 296 300 218 183 169 147 35 12 2 3 6 4 5 4 341 248 219 211 209 209 210 212 213 215 217 218 218 218 218 219 220 221 222 224 225 226 227 227 227 225 224 223 222 221 220 219 220 222 224 227 228 228 228 229 230 229 227 222 219 218 219 220 221 220 220 224 228 229 227 225 223 221 222 222 222 220 215 214 214 216 222 225 226 230 236 241
269 157 105 100 159 154 149 182 177 168 145 116 218 207 238 203 178 23 14 9 11 11 8 7 8 4 346 225 211 210 212 213 213 213 215 218 218 218 218 218 218 220 221 222 223 224 225 226 227 228 228 227 226 225 224 224 222 221 222 224 227 228 229 230 230 230 231 229 227 224 221 222 224 223 220 219 222 226 229 229 228 226 224 223 223 224 225 223 222 223 224 226 227 228 231 236 243
231 58 111 196 166 136 118 176 252 76 116 165 297 345 337 327 323 358 3 8 12 11 10 8 3 4 6 340 237 218 214 215 216 216 217 217 217 218 219 219 219 219 220 221 223 225 226 227 228 229 229 228 228 227 227 226 225 224 224 225 226 228 229 230 230 230 231 231 231 229 226 225 225 225 222 220 221 224 228 231 232 231 229 227 227 227 227 226 226 229 231 231 230 232 236 240 246
118 94 250 236 122 110 110 114 10 46 117 171 28 57 21 13 336 341 356 4 6 5 5 6 6 7 4 354 337 273 227 219 219 220 219 217 217 217 219 220 220 220 221 223 224 226 227 228 229 230 230 230 229 229 228 228 227 227 226 226 226 228 229 231 231 231 232 233 233 232 231 228 226 225 225 223 223 223 226 231 233 234 235 234 233 232 232 230 230 234 237 236 233 236 243 246 248
69 134 280 100 113 129 28 97 139 119 139 126 52 64 46 29 322 337 359 359 355 357 1 7 9 6 359 351 351 342 273 232 224 222 221 220 218 218 219 220 221 221 222 223 225 226 227 228 230 231 232 233 232 231 231 230 230 229 229 229 228 229 230 231 232 233 233 233 233 233 233 232 229 227 226 225 224 224 226 230 231 233 235 238 238 237 237 236 235 236 239 238 237 241 250 253 252
20 32 11 42 115 146 78 86 141 150 157 153 85 41 33 357 317 342 0 351 351 356 359 7 8 6 5 357 354 357 344 264 233 226 223 223 222 219 219 220 221 221 221 222 223 225 227 228 229 231 232 232 232 233 232 232 232 232 232 232 231 230 230 232 233 234 234 233 233 233 234 235 233 230 228 227 225 224 226 228 230 232 234 237 241 242 243 244 242 240 240 240 241 245 253 257 257
13 30 23 3 349 37 76 53 51 112 139 150 114 80 21 301 318 359 0 349 357 2 359 1 2 5 12 10 4 3 5 346 257 234 228 227 225 223 221 221 221 221 221 221 222 224 226 228 229 231 232 231 231 232 233 233 234 234 234 233 233 233 232 232 233 234 235 235 235 234 234 236 236 234 230 228 226 225 226 229 232 235 236 238 242 245 248 251 251 248 245 242 242 245 251 256 256
48 52 29 349 341 54 85 60 345 44 102 130 128 119 160 291 330 16 10 360 358 5 7 3 3 7 13 18 17 11 12 14 348 253 234 230 228 226 224 221 220 220 220 220 221 223 225 227 229 231 231 232 232 233 234 234 235 235 235 235 235 235 234 233 233 234 236 236 236 236 236 236 236 235 232 229 228 228 230 233 236 238 241 243 246 248 251 254 256 256 252 247 244 244 248 252 254